Weather History for KY19 - February, 2013

Change the Weather History Date:

Monday, February 18, 2013

  Actual Average (KBIS) Record (KBIS)
Temperature  
Mean Temperature 15 °F 19 °F  
Max Temperature 30 °F 29 °F 62 °F (1954)
Min Temperature 0 °F 9 °F -37 °F (1910)
Degree Days  
Heating Degree Days 50 46  
Month to date heating degree days 874  
Since 1 July heating degree days 5992  
Cooling Degree Days 0 0  
Month to date cooling degree days 0  
Year to date cooling degree days 0  
Moisture  
Dew Point 9 °F    
Average Humidity 85    
Maximum Humidity 100    
Minimum Humidity 73    
Precipitation  
Precipitation 0.76 in 0.02 in 0.36 in (1952)
Month to date precipitation 0.28  
Year to date precipitation 0.71  
Snow  
Snow 0.00 in 0.30 in 5.40 in (1949)
Month to date snowfall 4.8  
Since 1 July snowfall 34.2  
Snow Depth -    
Sea Level Pressure  
Sea Level Pressure 29.97 in    
Wind  
Wind Speed 24 mph (NNW)    
Max Wind Speed 32 mph    
Max Gust Speed 38 mph    
Visibility 8 miles    
Events Rain , Snow    
T = Trace of Precipitation, MM = Missing Value Source: NWS Daily Summary

Daily Weather History Graph

Daily Weather History Graph

Search for Another Location

Airport or City:

Trip Planner

Search our weather history database for the weather conditions in past years. The results will help you decide how hot, cold, wet, or windy it might be!

Date:

Astronomy

Feb. 18, 2013 Rise Set
Actual Time 7:42 AM CST 6:13 PM CST
Civil Twilight 7:11 AM CST 6:44 PM CST
Nautical Twilight 6:35 AM CST 7:19 PM CST
Astronomical Twilight 6:00 AM CST 7:54 PM CST
Moon 11:49 AM CST (2/18) 2:33 AM CST (2/18)
Length of Visible Light 11h 33m
Length of Day
10h 31m
First Quarter, 58% of the Moon is Illuminated
Feb 18
First Quarter
Feb 25
Full
Mar 4
Last Quarter
Mar 11
New
Mar 19
First Quarter

Hourly Weather History & Observations

Time (CST) Temp. Windchill Dew Point Humidity Pressure Visibility Wind Dir Wind Speed Gust Speed Precip Events Conditions
12:15 AM 30.2 °F 16.2 °F 30.2 °F 100% 29.60 in 1.8 mi NNW 25.3 mph 31.1 mph 0.09 in Snow Light Snow
12:35 AM 28.4 °F 13.0 °F 28.4 °F 100% 29.62 in 1.5 mi NNW 28.8 mph 35.7 mph 0.26 in Snow Light Snow
12:55 AM 26.6 °F 11.4 °F 26.6 °F 100% 29.64 in 1.5 mi NNW 25.3 mph 35.7 mph 0.41 in Snow Light Snow
1:15 AM 24.8 °F 9.3 °F 24.8 °F 100% 29.66 in 2.5 mi NNW 24.2 mph 28.8 mph 0.02 in Snow Light Snow
1:35 AM 23.0 °F 7.2 °F 23.0 °F 100% 29.68 in 2.0 mi NNW 23.0 mph 31.1 mph 0.05 in Snow Light Snow
1:55 AM 23.0 °F 6.6 °F 23.0 °F 100% 29.70 in 1.8 mi NNW 25.3 mph 32.2 mph 0.10 in Snow Light Snow
2:15 AM 21.2 °F 5.6 °F 19.4 °F 93% 29.71 in 3.0 mi NNW 20.7 mph 32.2 mph 0.02 in Snow Light Snow
2:35 AM 19.4 °F 2.8 °F 19.4 °F 100% 29.73 in 3.0 mi NNW 21.9 mph 32.2 mph 0.03 in Snow Light Snow
2:55 AM 19.4 °F 2.1 °F 17.6 °F 93% 29.75 in 4.0 mi NNW 24.2 mph 38.0 mph 0.03 in Snow Light Snow
3:15 AM 17.6 °F -0.3 °F 17.6 °F 100% 29.76 in 5.0 mi NNW 24.2 mph 33.4 mph N/A Snow Light Snow
3:35 AM 17.6 °F -0.3 °F 17.6 °F 100% 29.77 in 4.0 mi NNW 24.2 mph 33.4 mph 0.02 in Snow Light Snow
3:55 AM 17.6 °F 0.1 °F 15.8 °F 93% 29.78 in 10.0 mi NNW 23.0 mph 32.2 mph 0.02 in Rain Light Freezing Rain
4:15 AM 17.6 °F -0.3 °F 15.8 °F 93% 29.79 in 8.0 mi NNW 24.2 mph 31.1 mph N/A Snow Light Snow
4:35 AM 17.6 °F -1.3 °F 15.8 °F 93% 29.80 in 8.0 mi NNW 27.6 mph 32.2 mph 0.01 in Snow Light Snow
4:55 AM 15.8 °F -1.9 °F 15.8 °F 100% 29.80 in 10.0 mi NNW 21.9 mph 26.5 mph 0.01 in Snow Light Snow
5:15 AM 15.8 °F -2.3 °F 14.0 °F 93% 29.81 in 9.0 mi North 23.0 mph 34.5 mph 0.01 in Snow Light Snow
5:35 AM 15.8 °F -1.9 °F 14.0 °F 93% 29.83 in 9.0 mi NNW 21.9 mph 28.8 mph 0.03 in Snow Light Snow
5:55 AM 15.8 °F -1.9 °F 14.0 °F 93% 29.84 in 8.0 mi NNW 21.9 mph 31.1 mph 0.05 in Snow Light Snow
6:15 AM 15.8 °F -4.4 °F 14.0 °F 93% 29.85 in 5.0 mi NNW 29.9 mph 38.0 mph 0.01 in Snow Light Snow
6:35 AM 15.8 °F -2.7 °F 12.2 °F 86% 29.86 in 10.0 mi NNW 24.2 mph 34.5 mph 0.02 in Rain Light Freezing Rain
6:55 AM 14.0 °F -5.1 °F 12.2 °F 93% 29.87 in 7.0 mi NNW 24.2 mph - 0.02 in Snow Light Snow
7:15 AM 14.0 °F -7.4 °F 12.2 °F 93% 29.87 in 3.0 mi NNW 32.2 mph 38.0 mph N/A Snow Light Snow
7:35 AM 14.0 °F -5.5 °F 10.4 °F 86% 29.89 in 4.0 mi NNW 25.3 mph 32.2 mph N/A Snow Light Snow
7:55 AM 14.0 °F -5.1 °F 10.4 °F 86% 29.89 in 4.0 mi NNW 24.2 mph 34.5 mph 0.05 in Snow Light Snow
8:15 AM 14.0 °F -4.7 °F 10.4 °F 86% 29.91 in 3.0 mi NNW 23.0 mph 31.1 mph N/A Snow Light Snow
8:35 AM 14.0 °F -4.7 °F 10.4 °F 86% 29.92 in 5.0 mi NNW 23.0 mph 29.9 mph 0.01 in Snow Light Snow
8:55 AM 14.0 °F -4.7 °F 10.4 °F 86% 29.94 in 10.0 mi NNW 23.0 mph 27.6 mph 0.02 in Snow Light Snow
9:15 AM 14.0 °F -3.0 °F 10.4 °F 86% 29.94 in 10.0 mi NNW 18.4 mph 26.5 mph N/A Snow Light Snow
9:35 AM 14.0 °F -5.8 °F 8.6 °F 79% 29.96 in 10.0 mi NNW 26.5 mph 32.2 mph N/A Snow Light Snow
9:55 AM 14.0 °F -5.1 °F 8.6 °F 79% 29.96 in 10.0 mi North 24.2 mph 31.1 mph N/A   Mostly Cloudy
10:15 AM 14.0 °F -5.5 °F 8.6 °F 79% 29.97 in 10.0 mi NNW 25.3 mph 32.2 mph N/A Snow Light Snow
10:35 AM 14.0 °F -5.1 °F 10.4 °F 86% 29.98 in 10.0 mi NNW 24.2 mph 31.1 mph 0.01 in Snow Light Snow
10:55 AM 14.0 °F -5.5 °F 8.6 °F 79% 29.98 in 6.0 mi NNW 25.3 mph 32.2 mph 0.03 in Snow Light Snow
11:15 AM 14.0 °F -5.1 °F 8.6 °F 79% 29.99 in 10.0 mi NNW 24.2 mph 32.2 mph N/A Snow Light Snow
11:35 AM 14.0 °F -4.3 °F 8.6 °F 79% 30.00 in 10.0 mi NNW 21.9 mph 31.1 mph N/A Snow Light Snow
11:55 AM 14.0 °F -6.2 °F 8.6 °F 79% 30.00 in 6.0 mi NNW 27.6 mph 32.2 mph 0.01 in Snow Light Snow
12:15 PM 14.0 °F -4.3 °F 8.6 °F 79% 30.00 in 10.0 mi NNW 21.9 mph 29.9 mph N/A Snow Light Snow
12:35 PM 14.0 °F -5.1 °F 10.4 °F 86% 30.01 in 9.0 mi NNW 24.2 mph - N/A Snow Light Snow
12:55 PM 14.0 °F -4.3 °F 8.6 °F 79% 30.01 in 8.0 mi NNW 21.9 mph 28.8 mph 0.01 in Snow Light Snow
1:15 PM 14.0 °F -4.3 °F 8.6 °F 79% 30.01 in 10.0 mi NNW 21.9 mph 31.1 mph N/A Snow Light Snow
1:35 PM 14.0 °F -5.1 °F 6.8 °F 73% 30.01 in 10.0 mi NNW 24.2 mph 33.4 mph N/A Snow Light Snow
1:55 PM 14.0 °F -5.8 °F 8.6 °F 79% 30.01 in 9.0 mi NNW 26.5 mph 33.4 mph N/A Snow Light Snow
2:15 PM 14.0 °F -5.5 °F 8.6 °F 79% 30.02 in 10.0 mi NNW 25.3 mph 33.4 mph N/A Snow Light Snow
2:35 PM 12.2 °F -7.5 °F 6.8 °F 79% 30.03 in 10.0 mi NNW 24.2 mph 32.2 mph N/A   Mostly Cloudy
2:55 PM 14.0 °F -6.2 °F 6.8 °F 73% 30.04 in 10.0 mi NNW 27.6 mph 31.1 mph N/A   Mostly Cloudy
3:15 PM 14.0 °F -5.5 °F 6.8 °F 73% 30.05 in 10.0 mi NNW 25.3 mph 35.7 mph N/A   Mostly Cloudy
3:35 PM 12.2 °F -8.2 °F 6.8 °F 79% 30.05 in 10.0 mi NNW 26.5 mph 33.4 mph N/A Snow Light Snow
3:55 PM 12.2 °F -7.5 °F 5.0 °F 73% 30.06 in 10.0 mi NNW 24.2 mph 32.2 mph N/A   Scattered Clouds
4:15 PM 12.2 °F -7.5 °F 5.0 °F 73% 30.07 in 10.0 mi NNW 24.2 mph 33.4 mph N/A   Mostly Cloudy
4:35 PM 10.4 °F -9.1 °F 5.0 °F 79% 30.08 in 10.0 mi NNW 21.9 mph 33.4 mph N/A   Mostly Cloudy
4:55 PM 10.4 °F -10.3 °F 5.0 °F 79% 30.08 in 3.0 mi NNW 25.3 mph 31.1 mph N/A Snow Light Snow
5:15 PM 8.6 °F -11.0 °F 5.0 °F 85% 30.09 in 10.0 mi NNW 20.7 mph 29.9 mph N/A   Partly Cloudy
5:35 PM 8.6 °F -13.1 °F 3.2 °F 79% 30.10 in 10.0 mi NNW 26.5 mph 29.9 mph N/A   Mostly Cloudy
5:55 PM 6.8 °F -14.7 °F 1.4 °F 79% 30.11 in 10.0 mi NNW 24.2 mph 31.1 mph N/A   Scattered Clouds
6:15 PM 6.8 °F -15.5 °F 1.4 °F 79% 30.12 in 10.0 mi NNW 26.5 mph 32.2 mph N/A Snow Light Snow
6:35 PM 6.8 °F -12.4 °F 1.4 °F 79% 30.14 in 10.0 mi NNW 18.4 mph 27.6 mph N/A   Scattered Clouds
6:55 PM 5.0 °F -16.7 °F -0.4 °F 78% 30.15 in 10.0 mi NNW 23.0 mph 32.2 mph N/A   Scattered Clouds
7:15 PM 5.0 °F -16.2 °F -0.4 °F 78% 30.15 in 10.0 mi NNW 21.9 mph 26.5 mph N/A   Partly Cloudy
7:35 PM 5.0 °F -16.2 °F -0.4 °F 78% 30.16 in 10.0 mi NNW 21.9 mph 29.9 mph N/A Snow Light Snow
7:55 PM 5.0 °F -17.5 °F -0.4 °F 78% 30.16 in 10.0 mi North 25.3 mph 32.2 mph N/A   Clear
8:15 PM 5.0 °F -15.2 °F -0.4 °F 78% 30.17 in 10.0 mi North 19.6 mph 28.8 mph N/A Snow Light Snow
8:35 PM 5.0 °F -13.6 °F -0.4 °F 78% 30.18 in 10.0 mi North 16.1 mph 21.9 mph N/A Snow Light Snow
8:55 PM 3.2 °F -18.1 °F -0.4 °F 85% 30.18 in 7.0 mi NNW 20.7 mph 24.2 mph N/A Snow Light Snow
9:15 PM 3.2 °F -17.1 °F -0.4 °F 85% 30.19 in 10.0 mi North 18.4 mph 24.2 mph N/A   Scattered Clouds
9:35 PM 1.4 °F -18.2 °F -2.2 °F 85% 30.19 in 10.0 mi NNW 16.1 mph 20.7 mph N/A   Scattered Clouds
9:55 PM 1.4 °F -18.2 °F -2.2 °F 85% 30.20 in 10.0 mi NNW 16.1 mph 20.7 mph N/A   Partly Cloudy
10:15 PM 1.4 °F -17.6 °F -2.2 °F 85% 30.20 in 10.0 mi NNW 15.0 mph - N/A   Clear
10:35 PM -0.4 °F -19.2 °F -2.2 °F 92% 30.21 in 10.0 mi NNW 13.8 mph - N/A   Clear
10:55 PM -0.4 °F -19.9 °F -4.0 °F 85% 30.22 in 10.0 mi NNW 15.0 mph - N/A   Clear
11:15 PM -0.4 °F -19.2 °F -4.0 °F 85% 30.22 in 10.0 mi NNW 13.8 mph 18.4 mph N/A   Clear
11:35 PM -0.4 °F -17.6 °F -4.0 °F 85% 30.23 in 10.0 mi NNW 11.5 mph 17.3 mph N/A   Clear
11:55 PM -0.4 °F -16.7 °F -4.0 °F 85% 30.24 in 10.0 mi NNW 10.4 mph - N/A   Clear